This demonstration page uses our WeatherBlox Daily Observations layout. Learn more.

Hourly Observations for February 14, 2020

Temp ( °F °C ) Dew Point ( °F °C ) Humidity (%) Winds ( mph kmh ) Pressure ( in mb ) Visibility ( mi km ) Precip ( " mm )
12:54 am 00:54 Clear 2 -16.7 -5 -20.6 72 72 S 8 13 30.55 1035 10 16.0934 0 0
1:54 am 01:54 Clear 5 -15 -4 -20 66 66 SSE 5 7 30.54 1034 10 16.0934 0 0
2:54 am 02:54 Clear 5 -15 -3 -19.4 69 69 SSE 6 9 30.53 1034 10 16.0934 0 0
3:54 am 03:54 Clear 6 -14.4 -1 -18.3 73 73 SSE 9 15 30.49 1033 10 16.0934 0 0
4:54 am 04:54 Clear 5 -15 -1 -18.3 76 76 S 6 9 30.5 1033 10 16.0934 0 0
5:54 am 05:54 Clear 6 -14.4 0 -17.8 76 76 SSE 7 11 30.49 1033 10 16.0934 0 0
6:54 am 06:54 Clear 7 -13.9 1 -17.2 76 76 S 9 15 30.47 1032 10 16.0934 0 0
7:54 am 07:54 Sunny 9 -12.8 2 -16.7 73 73 S 10 17 30.46 1032 10 16.0934 0 0
8:54 am 08:54 Sunny 13 -10.6 4 -15.6 67 67 S 20 31 30.45 1031 10 16.0934 0 0
9:54 am 09:54 Sunny 18 -7.8 5 -15 57 57 S 20 31 30.44 1031 10 16.0934 0 0
10:54 am 10:54 Sunny 22 -5.6 2 -16.7 42 42 S 22 35 30.4 1030 10 16.0934 0 0
11:54 am 11:54 Sunny 26 -3.3 2 -16.7 35 35 S 24 39 30.35 1028 10 16.0934 0 0
12:54 pm 12:54 Cloudy 28 -2.2 3 -16.1 34 34 S 25 41 30.29 1026 10 16.0934 0 0
1:54 pm 13:54 Cloudy 29 -1.7 2 -16.7 31 31 S 26 43 30.23 1024 10 16.0934 0 0
2:54 pm 14:54 Cloudy 29 -1.7 2 -16.7 31 31 S 26 43 30.21 1023 10 16.0934 0 0
3:54 pm 15:54 Mostly Cloudy 30 -1.1 3 -16.1 31 31 S 23 37 30.17 1022 10 16.0934 0 0
4:54 pm 16:54 Mostly Cloudy 29 -1.7 7 -13.9 39 39 S 25 41 30.14 1021 10 16.0934 0 0
5:54 pm 17:54 Sunny 26 -3.3 9 -12.8 48 48 S 22 35 30.14 1021 10 16.0934 0 0
6:24 pm 18:24 Mostly Cloudy 26 -3.3 10 -12.2 51 51 S 18 30 30.17 1022 10 16.0934 0 0
6:54 pm 18:54 Cloudy 26 -3.3 11 -11.7 53 53 S 18 30 30.13 1020 10 16.0934 0 0
7:35 pm 19:35 Partly Cloudy 25 -3.9 12 -11.1 58 58 S 17 28 30.15 1021 10 16.0934 0 0
7:54 pm 19:54 Clear 25 -3.9 12 -11.1 58 58 S 17 28 30.14 1021 10 16.0934 0 0
8:54 pm 20:54 Clear 24 -4.4 12 -11.1 60 60 S 20 31 30.12 1020 10 16.0934 0 0
9:54 pm 21:54 Clear 24 -4.4 12 -11.1 60 60 S 18 30 30.1 1019 10 16.0934 0 0
10:54 pm 22:54 Clear 25 -3.9 12 -11.1 58 58 S 20 31 30.06 1018 10 16.0934 0 0
11:54 pm 23:54 Clear 27 -2.8 12 -11.1 53 53 S 17 28 30.03 1017 10 16.0934 0 0

Powered by AerisWeather